Regional Weather Roundup
Issued by NWS

Home | Current Version | Previous Version | Graphics & Text | Print | Product List | Glossary On
Versions: 1 2 3 4 5 6 7 8 9 10 11 12 13 14 15 16 17 18 19 20 21 22 23 24 25 26 27 28 29 30 31 32 33 34 35 36 37 38 39 40 41 42 43 44 45 46 47 48 49 50
000
ASUS43 KLOT 270300
RWRIL

ILLINOIS REGIONAL WEATHER ROUNDUP
NATIONAL WEATHER SERVICE CHICAGO/ROMEOVILLE IL
900 PM CST THU FEB 26 2015

NOTE: "FAIR" INDICATES FEW OR NO CLOUDS BELOW 12,000 FEET WITH NO
SIGNIFICANT WEATHER AND/OR OBSTRUCTIONS TO VISIBILITY.

* THESE STATIONS ARE NOT UNDER NWS QUALITY CONTROL. THEY ALSO MAY NOT
  REPORT WEATHER SUCH AS PRECIPITATION OR FOG.

ILZ001-002-007-009-015-016-024-270400-
NORTHWEST ILLINOIS

CITY           SKY/WX    TMP DP  RH WIND       PRES   REMARKS
MOLINE         CLEAR      2  -7  66 W10       30.49R WCI -14
STERLING*      CLEAR      0 -11  60 W6        30.44R WCI -12
$$

ILZ003-004-008-010-011-017-018-270400-
NORTH CENTRAL ILLINOIS

CITY           SKY/WX    TMP DP  RH WIND       PRES   REMARKS
ROCKFORD       CLEAR     -1  -8  72 S3        30.43R
$$

ILZ005-006-012>014-019>023-270400-
NORTHEAST ILLINOIS

CITY           SKY/WX    TMP DP  RH WIND       PRES   REMARKS
CHICAGO-OHARE  PTCLDY     5  -7  57 NW10      30.40R WCI -10
CHICAGO-MIDWAY FAIR      11  -3  53 NW12      30.40R WCI  -3
AURORA         CLEAR     -8 -16  67 NW7       30.42R WCI -23
WAUKEGAN       CLEAR      5  -8  55 NW6       30.39R WCI  -6
DUPAGE AIRPORT CLEAR      5  -6  60 NW8       30.40R WCI  -8
WHEELING       CLEAR      7  -7  52 NW8       30.42R WCI  -6
NORTHERLY ISL    N/A     13   1  59 NW10        N/A  WCI   0
$$

LMZ740>746-270400-
SOUTHERN LAKE MICHIGAN

STATION/POSITION SKY/WX   TEMP    WIND        PRES    VSBY  WAVE
                          AIR SEA DIR/SP/G                  HT/PER
                          (F)     (DEG/KT/KT) (MB)    (MI)  (FT/S)
WAUKEGAN HARBOR             8     330/ 10/ 13   N/A
HARRISON CRIB              13     310/ 16/ 18   N/A
BURNHAM HARBOR             13     330/  7/ 13   N/A
CALUMET HARBOR             12     290/  7/ 12 1027.5R
MICHIGAN CITY              15     330/ 13/ 15   N/A
$$

ILZ025>027-034>036-040-047-049-050-058-095>099-270400-
WEST-CENTRAL ILLINOIS

CITY           SKY/WX    TMP DP  RH WIND       PRES   REMARKS
QUINCY         CLEAR      4  -6  63 NW10      30.50R WCI -11
$$

ILZ028>032-037-038-041>044-048-051>054-059>061-270400-
CENTRAL ILLINOIS

CITY           SKY/WX    TMP DP  RH WIND       PRES   REMARKS
DECATUR        LGT SNOW  13   7  77 NW14      30.44R WCI  -2
PEORIA         CLEAR      8  -2  63 NW6       30.47R WCI  -2
SPRINGFIELD    PTCLDY    10   1  67 NW10      30.47R WCI  -4
TAYLORVILLE    NOT AVBL
$$

ILZ033-039-045-046-055>057-062-063-270400-
EAST-CENTRAL ILLINOIS

CITY           SKY/WX    TMP DP  RH WIND       PRES   REMARKS
CHAMPAIGN      CLOUDY    10   3  73 NW12      30.41R WCI  -5
MATTOON        CLOUDY    13   6  74 N13       30.41R WCI  -2
$$

ILZ079-100>102-270400-
SOUTHWEST ILLINOIS

CITY           SKY/WX    TMP DP  RH WIND       PRES   REMARKS
CAHOKIA*       MOCLDY    16   3  56 NW16G24   30.49R WCI   1
$$

ILZ064>066-069>071-074>076-080>082-084>086-088>090-092>094-270400-
SOUTH-CENTRAL ILLINOIS

CITY           SKY/WX    TMP DP  RH WIND       PRES   REMARKS
CARBONDALE     FLURRIES  20   9  62 N14       30.44R WCI   7
MT. VERNON     CLOUDY    19  10  68 N5        30.43R WCI  13
$$

ILZ067-068-072-073-078-083-087-091-270400-
SOUTHEAST ILLINOIS

CITY           SKY/WX    TMP DP  RH WIND       PRES   REMARKS
LAWRENCEVILLE  CLEAR     16   7  67 N10       30.42R WCI   4
$$

ABBREVIATIONS USED IN REMARKS
   TC - TEMPERATURE IN CELSIUS
  WCI - WIND CHILL INDEX
   HX - HEAT INDEX
  VSB - VISIBILITY
$$




USA.gov is the U.S. government's official web portal to all federal, state and local government web resources and services.